Погода Озерная

Погода Озерная : погода сейчас, прогноз погоды и архив. Всё, что Вы хотите узнать о погоде Озерная!

Хотите узнать прогноз погоды Озерная? Тогда Вам сюда: Погода Озерная

Поиск расширенной информации на нашем сайте:

Другие новости

Новости СМИ2

Главная страница сайта

Новости сайта

03.07.2017

Напоминаем, что на нашем специализированном сайте Метеоцентр.Азия вы можете получить высокодетализированные автоматические прогнозы погоды по пунктам России, СНГ и мира в авиационном формате (включающие направление и скорость ветра, видимость, явления погоды, количество и форму облачности, нижнюю и верхнюю границу облачности).


Погода Озерная - сегодня

Время (UTC), дата Ветер
(°,м/с) 
Видим.   Явления Облачность Т
(°С)
Тd
(°С)
f(%) Тe
(°С)
Pmin
(гПа)
dP
(гПа)
Po
(мм)
O2
(г/м3)
Тmin Tmax R s Состояние
почвы
21 20.05.18 040 (СВ) 11-15{24}  4000 м  слаб. ливневой дождь со снегом  10/10 200 м кучево-дожд. 
[Cb cap]
+1.8 +0 88 -3  1008.9  -3.2  754  302  +1.7    0.4    влажная 
09 21.05.18 010 (С) 9-13{18}  10 км  слаб. крупа{ливн. осадки}  10/10 300 м кучево-дожд. 
[Cb cap]
+2.3 +0.2 86 -2  999.5  -0.9  747  298    +5.3  0.6     
18 21.05.18 330 (СЗ) 20000 м  {ливн. осадки}  9/9 600 м 
[Sc]
+2.2 +0.9 91 +1  995.8  -0.3  744  297           
21 21.05.18 330 (СЗ) 10 км  слаб. ливневой дождь  10/10 200 м кучево-дожд. 
[Cb cap]
+3.2 +2.5 95 +2  995.4  -0.4  744  296  +1.6    0.9  мокрый или
старый снег
10-40% 
09 22.05.18 300 (СЗ) 8-10{12}  10 км    9/9 600 м 
[Sc]
+2 +1.1 94 -2  997.5  0.6  746  298    +3.2     
18 22.05.18 290 (З) 4000 м  дымка{ливн. осадки}  10/10 200 м 
[St]
+1.6 +1.3 98 -2  999.1  0.6  747  299           
21 22.05.18 290 (З) 2000 м  слаб. морось{туман}  10/10 100 м 
[St]
+1.8 +1.5 98 -1  1000.2  1.1  748  299  +1.3    0.9  мокрый или
старый снег
10-40% 
03 23.05.18 290 (З) 2000 м  слаб. морось{ливн. осадки}  10/10 100 м 
[St]
+2 +1.6 97 -1  1002.5  1.4  749  299           
06 23.05.18 240 (ЮЗ) 0500 м  слаб. ливневой дождь{морось}  ?/?  
+2.3 +2.1 99 +2  1004  1.4  750  299           
09 23.05.18 300 (СЗ) 0500 м  слаб. морось{ливн. осадки}  ?/?  
+2.6 +2.3 98 +1  1005.3  1.4  751  300    +2.8     
12 23.05.18 330 (СЗ) 2000 м  слаб. морось{ливн. осадки}  10/10 100 м 
[St]
+2.6 +2.3 98 +2  1006.6  1.2  752  300           
15 23.05.18 300 (СЗ) 2000 м  слаб. морось  10/10 100 м 
[St]
+2.4 +2.2 99 +1  1008  1.5  753  301           
18 23.05.18 340 (С) 2000 м  дымка{морось}  10/10 100 м 
[St]
+2.3 +1.9 97 1008.5  0.4  754  301           
21 23.05.18 010 (С) 20000 м    9/9 300 м 
[St]
+3.9 +2.2 89 +3  1009.4  754  299  +2.1    0.0  мокрый или
старый снег
10-40% 
03 24.05.18 300 (СЗ) 20000 м  {туман}  3/3 600 м 
[Sc]
+5.2 +3 86 +4  1009.7  -0.1  755  298           
06 24.05.18 170 (Ю) 0500 м  туман  ?/?  
+2 +1.5 96 +1  1010.6  0.8  755  302           
09 24.05.18 180 (Ю) 20000 м  {туман}  9/9 300 м 
[St]
+3 +1.6 91 1011.3  0.7  756  301    +6.5       
12 24.05.18 160 (Ю) 20000 м  {туман}  10/10 600 м 
[Sc]
+2.2 +1.4 94 +3  1011.7  0.4  756  302           
15 24.05.18 350 (С) 10 км    10/10 600 м 
[Sc]
+2.6 +1.7 94 +1  1011.4  -0.3  756  301           
21 24.05.18 080 (В) 9-13{13}  10 км  слаб. ливневой дождь  10/10 300 м кучево-дожд. 
[Cb cap]
+3.9 +1 81 1011.2  0.3  756  300  +1.3    0.0  мокрый или
старый снег
10-40% 
09 25.05.18 070 (В) 8-12{13}  20000 м    10/10 600 м 
[Sc]
+5.1 +1.9 80 +2  1012.3  1.1  757  299    +7.8  0.0     
18 25.05.18 010 (С) 3{11}  20000 м    10/10 600 м 
[Sc]
+3.9 +2 87 +3  1013.8  0.9  758  301           
21 25.05.18 080 (В) 7-10{11}  20000 м    10/10 600 м 
[Sc]
+5.4 +1.6 76 +3  1014  0.3  758  299  +3.9      мокрый или
старый снег
10-40% 
09 26.05.18 070 (В) 8-12{16}  20000 м  слаб. ливневой дождь  10/10 300 м кучево-дожд. 
[Cb cap]
+5 +0.7 74 +2  1010.7  -1.1  755  299    +8.9  0.0     
21 26.05.18 150 (ЮВ) 20000 м  {ливн. осадки}  10/10 600 м кучево-дожд. 
[Cb calv]
+4.4 +2.7 89 +3  1005.7  -0.4  752  298  +3.1    мокрый или
старый снег
10-40% 
Время (UTC), дата Ветер
(°,м/с) 
Видим.   Явления Облачность Т
(°С)
Тd
(°С)
f(%) Тe
(°С)
Pmin
(гПа)
dP
(гПа)
Po
(мм)
O2
(г/м3)
Тmin Tmax R s Состояние
почвы

Для получения пояснительной информации подведите курсор к названию столбца.

ПОГОДА Озерная - архив

Всё, что Вы хотите узнать о погоде Озерная - удобно и подробно!

Выберите нужную дату (начиная с 1 января 2015* года) и нажмите кнопку "Найти".
Будут отображены архивные сводки погоды по пункту Озерная, начиная с указанной даты.


Отображать данные в формате CSV (для использования в таблицах Excel)


Внимание! Наш архив погоды предназначен исключительно для личного некоммерческого использования в познавательных целях. Если Вам необходимы официальные справки о состоянии погоды (для производственных, юридических, коммерческих и т.п. целей), обращайтесь в органы Росгидромета.

*Примечание: данная дата относится к архиву по метеостанциям СССР (Россия, СНГ, Балтия).
Архив по метеостанциям Зарубежной Европы и Азии (кроме Китая) хранится 10 дней, по другим регионам земного шара (Китай, Африка, Америка, Австралия, Океания) - 1 день.

Озерная - район местоположения метеостанции


Название, широта, долгота, высота метеостанции:
Озерная 51.5°ш. 156.5°д. 28 м над ур. моря [Российская Федерация]

Дополнительная информация

В oтличие oт бoльшинства пoгoдных сайтoв мы публикуем пoдрoбную метеoинфoрмацию в детальнoм прoфессиoнальнoм фoрмате.

Характеристики температуры и влажнoсти вoздуха измеряются на высoте 2 м в тени вдали oт зданий и деревьев.
Скoрoсть ветра измеряется на высoте 10 м (на урoвне рoста челoвека скoрoсть ветра ниже в 1.5-2 раза). Если метеoстанция нахoдится в гoрoде или в лесу, тo скoрoсть ветра занижена на 2-4 м/с пo сравнению с oткрытым местoм. Скoрoсть ветра над акватoриями крупных рек и oзёр, а также на вершинах хoлмoв на 2-5 м/с выше, чем в oбычных услoвиях.
Атмoсфернoе давление в разных тoчках местнoсти мoжет значительнo oтличаться oт давления на метеoстанции, в зависимoсти oт услoвий рельефа (при пoдъёме на 10 м давление пoнижается примернo на 1 мм рт.ст.).